Temp
58 58 58 57 57 57 57 55 54 54 52 50 50 47 47 44 43 42 41 40 40 40 40 40 40 41 41 40 40 40 39 38 39 39 39 38 37 37 37 37 37 37
58 57 57 56 55 54 54 55 53 53 50 49 47 45 43 43 41 40 39 39 39 38 39 39 39 39 39 38 38 38 36 37 37 37 36 36 35 35 35 35 35 35
56 55 55 55 54 53 51 51 51 50 48 46 45 44 42 41 39 38 38 38 38 37 37 37 37 37 37 36 36 35 35 35 34 34 33 33 33 33 33 34 34 33
54 55 55 54 53 51 49 49 47 46 45 44 43 42 41 39 38 37 36 36 36 35 34 35 35 35 35 35 35 33 33 32 30 30 31 31 31 31 31 30 31 31
53 53 52 51 50 49 49 48 46 45 45 42 40 39 38 37 36 34 34 33 33 33 32 33 33 33 33 33 33 33 31 31 30 31 32 31 30 31 30 30 30 31
51 51 50 49 48 48 48 46 44 44 41 40 38 37 37 35 34 34 33 33 32 32 32 32 32 31 31 32 32 31 31 31 30 32 32 31 30 29 30 30 30 30
47 47 46 46 46 46 46 43 42 41 40 38 35 34 34 34 34 34 34 33 33 32 32 32 32 31 30 31 31 31 30 30 31 32 32 30 30 30 30 30 29 30
45 45 45 45 45 43 42 40 39 37 35 35 35 33 34 34 34 33 32 33 32 32 32 31 32 31 30 31 31 31 31 31 31 31 31 30 30 30 30 29 29 30
43 43 43 42 41 39 38 37 35 34 35 35 34 33 32 33 33 32 32 32 32 31 31 31 31 30 30 31 31 31 31 30 30 31 31 30 30 30 29 29 29 28
41 40 40 40 39 38 37 35 34 34 34 35 33 33 32 31 32 32 32 32 31 31 31 31 31 30 30 30 31 31 31 31 30 30 30 30 30 30 29 29 29 28
38 39 40 39 38 36 35 34 34 34 33 34 33 32 32 31 30 31 32 32 32 32 31 31 31 31 31 30 30 30 30 30 30 29 29 29 29 29 30 29 29 28
38 38 38 38 36 35 34 34 33 33 33 32 33 32 31 31 31 30 31 31 30 31 30 30 30 30 31 30 30 29 29 29 29 29 29 29 29 29 29 28 28 28
38 38 38 37 35 34 34 33 33 33 33 32 31 32 31 31 30 30 29 30 30 30 31 31 30 30 30 30 29 30 30 30 30 29 29 28 29 28 29 28 28 28
37 37 36 35 34 34 34 33 32 32 32 31 31 31 31 31 31 30 29 30 30 30 30 29 30 30 29 29 29 30 29 29 29 29 28 28 28 28 28 26 27 27
36 34 34 33 33 33 33 32 32 31 31 30 30 30 31 30 30 30 30 30 29 29 29 29 30 31 30 30 30 30 29 29 29 28 28 28 28 27 26 26 26 26
34 34 33 33 33 33 33 32 32 31 31 30 30 30 30 30 30 30 30 30 29 29 29 30 30 31 34 37 35 30 29 29 29 28 28 27 27 26 26 27 27 26
33 33 33 33 33 33 32 32 31 31 31 30 30 30 29 29 29 29 28 29 29 28 28 29 30 32 37 38 38 36 30 28 28 28 27 27 26 25 25 25 25 25
33 33 33 33 33 32 32 32 31 31 31 30 29 29 28 28 28 28 28 27 28 27 27 28 30 36 38 38 38 36 33 28 27 27 27 26 25 25 25 24 24 25
33 33 33 33 33 32 32 31 30 31 30 29 29 28 27 28 27 27 26 26 27 27 26 27 28 36 37 37 37 36 34 29 26 26 26 26 25 25 24 24 24 24
33 33 33 33 32 31 31 31 30 31 29 28 27 27 27 26 25 26 26 26 26 26 26 26 28 35 36 37 36 35 33 30 25 26 27 27 27 26 25 24 23 23
33 33 32 31 31 30 30 30 30 28 27 27 27 27 26 26 25 25 24 24 25 25 26 27 29 35 36 36 35 34 33 29 26 27 27 27 27 26 25 24 23 24
33 33 32 31 30 30 30 29 28 28 27 25 24 24 24 24 23 24 24 23 24 23 24 25 28 34 35 35 35 33 31 26 26 27 26 26 26 26 26 25 24 23
33 33 31 30 30 29 29 28 27 25 24 24 25 25 25 24 23 22 22 22 22 22 23 24 24 32 34 34 34 32 28 25 25 25 25 25 25 25 24 23 23 23
33 32 31 30 29 29 29 28 26 25 24 25 26 25 24 23 22 21 21 21 22 23 24 24 25 30 33 33 33 31 28 25 24 23 23 24 25 26 26 25 25 26
32 31 31 30 30 30 29 27 26 25 24 23 24 24 22 21 21 22 21 21 22 24 26 25 24 27 32 32 32 31 27 25 23 21 22 23 24 23 25 25 24 24
31 30 30 30 30 28 27 26 24 22 22 23 21 21 21 21 22 22 22 23 23 23 24 24 24 24 27 31 31 31 30 26 24 22 22 23 23 23 22 21 21 21
MSLP
1019.77 1020.09 1020.37 1020.69 1020.93 1021.09 1021.53 1022.09 1022.41 1022.61 1023.17 1023.57 1023.65 1024.21 1024.37 1024.97 1025.33 1025.41 1025.73 1025.89 1025.93 1026.01 1026.17 1026.29 1026.37 1026.49 1026.69 1026.85 1027.01 1027.17 1027.41 1027.73 1028.01 1028.17 1028.29 1028.33 1028.57 1028.65 1028.61 1028.89 1029.05 1029.13
1019.49 1019.77 1020.13 1020.45 1020.85 1021.17 1021.37 1021.53 1022.13 1022.57 1023.17 1023.53 1023.97 1024.41 1024.81 1025.01 1025.49 1025.61 1025.81 1025.97 1026.17 1026.29 1026.45 1026.49 1026.57 1026.69 1026.81 1026.97 1027.13 1027.21 1027.53 1027.73 1027.97 1028.37 1028.17 1028.33 1028.73 1028.77 1028.89 1029.05 1029.05 1029.29
1019.33 1019.69 1020.05 1020.37 1020.73 1021.13 1021.61 1022.05 1022.29 1022.77 1023.17 1023.81 1024.25 1024.29 1024.73 1025.29 1025.53 1025.85 1026.01 1026.13 1026.29 1026.45 1026.53 1026.69 1026.77 1026.93 1026.97 1027.09 1027.21 1027.33 1027.45 1027.57 1027.85 1028.41 1028.25 1028.53 1028.77 1028.61 1029.05 1029.13 1029.09 1029.13
1019.29 1019.45 1019.81 1020.25 1020.61 1021.09 1021.81 1022.21 1022.73 1023.17 1023.65 1023.97 1024.13 1024.49 1024.81 1025.41 1025.61 1025.85 1026.13 1026.25 1026.33 1026.57 1026.77 1026.89 1026.93 1027.01 1027.05 1027.17 1027.21 1027.41 1027.65 1027.85 1028.21 1028.29 1028.25 1028.61 1028.77 1028.77 1028.93 1029.05 1029.09 1029.13
1019.21 1019.65 1019.97 1020.33 1020.85 1021.21 1021.65 1022.13 1022.65 1023.09 1023.41 1023.85 1024.37 1024.73 1025.09 1025.37 1025.61 1025.89 1026.09 1026.37 1026.49 1026.73 1026.89 1026.93 1027.01 1027.05 1027.09 1027.13 1027.17 1027.29 1027.65 1027.81 1028.17 1028.05 1027.81 1028.17 1028.81 1028.81 1029.05 1029.01 1028.97 1028.97
1019.45 1019.65 1020.05 1020.49 1020.97 1021.29 1021.61 1022.05 1022.61 1022.97 1023.37 1023.85 1024.33 1024.89 1025.13 1025.41 1025.61 1025.81 1026.05 1026.29 1026.65 1026.77 1026.85 1026.97 1026.97 1027.21 1027.21 1027.25 1027.33 1027.45 1027.57 1027.57 1027.93 1027.77 1027.77 1028.17 1028.69 1029.05 1029.09 1029.09 1029.05 1029.01
1019.65 1020.05 1020.41 1020.77 1021.13 1021.37 1021.61 1022.25 1022.81 1023.05 1023.37 1023.93 1024.61 1024.93 1025.21 1025.41 1025.57 1025.77 1026.09 1026.41 1026.65 1026.73 1026.77 1026.93 1027.01 1027.17 1027.41 1027.33 1027.33 1027.53 1027.85 1027.89 1028.01 1027.97 1028.01 1028.57 1028.65 1028.77 1029.09 1029.13 1029.25 1029.29
1019.85 1020.25 1020.53 1020.85 1021.13 1021.57 1021.93 1022.49 1022.81 1023.17 1023.73 1024.17 1024.41 1025.09 1025.21 1025.29 1025.53 1025.97 1026.33 1026.53 1026.57 1026.81 1026.97 1027.09 1027.17 1027.25 1027.45 1027.29 1027.21 1027.41 1027.81 1028.13 1028.05 1028.13 1028.25 1028.57 1028.69 1028.73 1029.13 1029.33 1029.37 1029.37
1020.09 1020.41 1020.73 1020.93 1021.21 1021.73 1022.09 1022.57 1023.05 1023.49 1023.81 1024.01 1024.61 1025.09 1025.37 1025.37 1025.73 1026.13 1026.37 1026.53 1026.65 1026.81 1026.93 1027.05 1027.17 1027.33 1027.53 1027.29 1027.41 1027.41 1027.65 1028.13 1028.33 1028.29 1028.29 1028.41 1028.61 1028.97 1029.17 1029.33 1029.29 1029.41
1020.41 1020.69 1020.81 1021.09 1021.29 1021.85 1022.21 1022.81 1023.21 1023.57 1023.89 1024.21 1024.73 1025.01 1025.21 1025.77 1026.01 1026.25 1026.37 1026.45 1026.49 1026.69 1026.85 1027.01 1027.25 1027.45 1027.57 1027.65 1027.65 1027.69 1027.85 1028.13 1028.33 1028.45 1028.61 1028.73 1028.85 1029.01 1029.09 1029.21 1029.33 1029.37
1020.69 1020.89 1020.93 1021.21 1021.57 1022.13 1022.49 1022.97 1023.29 1023.65 1024.09 1024.33 1024.61 1024.89 1025.37 1025.77 1026.17 1026.33 1026.29 1026.29 1026.29 1026.53 1026.77 1027.01 1027.29 1027.41 1027.45 1027.69 1027.89 1028.05 1028.17 1028.29 1028.41 1028.53 1028.65 1028.81 1028.93 1029.05 1029.17 1029.25 1029.37 1029.45
1020.85 1020.97 1021.13 1021.41 1021.85 1022.29 1022.73 1023.09 1023.45 1023.81 1024.21 1024.49 1024.45 1024.85 1025.49 1025.81 1025.97 1026.21 1026.13 1026.29 1026.53 1026.77 1026.93 1027.21 1027.41 1027.45 1027.45 1027.65 1027.97 1028.21 1028.33 1028.41 1028.49 1028.53 1028.69 1028.85 1029.05 1029.17 1029.29 1029.37 1029.41 1029.53
1020.89 1021.05 1021.33 1021.77 1022.17 1022.57 1023.05 1023.41 1023.73 1024.05 1024.13 1024.29 1024.69 1024.93 1025.29 1025.69 1026.01 1026.09 1026.41 1026.41 1026.73 1026.89 1027.01 1027.25 1027.37 1027.45 1027.61 1027.85 1028.05 1028.17 1028.21 1028.25 1028.37 1028.53 1028.73 1028.97 1029.13 1029.21 1029.33 1029.41 1029.49 1029.53
1020.97 1021.25 1021.61 1022.01 1022.45 1022.85 1023.21 1023.57 1023.89 1024.05 1024.17 1024.53 1024.81 1025.05 1025.33 1025.53 1025.73 1026.01 1026.49 1026.61 1026.81 1026.97 1027.33 1027.41 1027.41 1027.57 1027.81 1027.97 1028.01 1028.05 1028.09 1028.21 1028.37 1028.53 1028.77 1028.97 1029.13 1029.25 1029.33 1029.37 1029.45 1029.57
1021.21 1021.61 1021.89 1022.25 1022.61 1022.97 1023.37 1023.65 1023.85 1024.01 1024.29 1024.61 1024.89 1025.21 1025.49 1025.69 1025.93 1026.09 1026.29 1026.65 1026.97 1027.17 1027.33 1027.45 1027.49 1027.69 1027.81 1027.89 1027.97 1028.09 1028.21 1028.33 1028.49 1028.65 1028.73 1028.85 1029.05 1029.21 1029.33 1029.41 1029.49 1029.57
1021.33 1021.69 1022.01 1022.33 1022.65 1022.97 1023.33 1023.57 1023.77 1024.05 1024.33 1024.65 1025.01 1025.29 1025.57 1025.81 1025.97 1026.17 1026.25 1026.45 1026.81 1027.21 1027.41 1027.53 1027.69 1027.73 1027.73 1027.77 1027.93 1028.09 1028.29 1028.45 1028.57 1028.65 1028.73 1028.81 1028.93 1029.13 1029.33 1029.41 1029.49 1029.61
1021.45 1021.77 1022.09 1022.33 1022.61 1023.01 1023.33 1023.45 1023.73 1024.05 1024.37 1024.77 1025.13 1025.37 1025.57 1025.81 1025.97 1026.13 1026.41 1026.69 1026.85 1027.09 1027.41 1027.65 1027.69 1027.65 1027.61 1027.73 1027.85 1028.13 1028.41 1028.53 1028.57 1028.69 1028.77 1028.85 1028.97 1029.13 1029.29 1029.41 1029.53 1029.61
1021.41 1021.77 1022.01 1022.33 1022.65 1022.89 1023.13 1023.37 1023.69 1024.05 1024.41 1024.77 1025.09 1025.37 1025.73 1025.85 1025.93 1026.21 1026.53 1026.81 1027.05 1027.33 1027.53 1027.65 1027.61 1027.61 1027.65 1027.77 1027.89 1028.17 1028.45 1028.53 1028.61 1028.65 1028.73 1028.85 1029.01 1029.17 1029.37 1029.49 1029.57 1029.65
1021.33 1021.57 1021.89 1022.25 1022.49 1022.77 1023.09 1023.45 1023.73 1024.09 1024.45 1024.73 1024.93 1025.37 1025.65 1025.69 1026.13 1026.33 1026.61 1026.89 1027.05 1027.29 1027.61 1027.69 1027.61 1027.61 1027.69 1027.77 1027.93 1028.17 1028.37 1028.53 1028.57 1028.61 1028.69 1028.89 1029.09 1029.25 1029.37 1029.45 1029.53 1029.61
1021.21 1021.45 1021.73 1022.09 1022.45 1022.85 1023.13 1023.41 1023.73 1023.93 1024.33 1024.73 1025.13 1025.45 1025.53 1025.93 1026.25 1026.37 1026.69 1026.89 1027.13 1027.37 1027.61 1027.73 1027.65 1027.65 1027.73 1027.85 1028.01 1028.17 1028.37 1028.49 1028.57 1028.61 1028.81 1029.01 1029.17 1029.33 1029.37 1029.41 1029.49 1029.57
1021.13 1021.37 1021.69 1022.13 1022.49 1022.81 1023.09 1023.37 1023.65 1024.09 1024.49 1024.89 1025.01 1025.13 1025.41 1025.65 1026.01 1026.33 1026.73 1027.01 1027.29 1027.49 1027.57 1027.65 1027.69 1027.65 1027.77 1027.89 1028.01 1028.21 1028.33 1028.49 1028.61 1028.73 1028.93 1029.13 1029.25 1029.29 1029.33 1029.41 1029.49 1029.57
1020.89 1021.25 1021.65 1022.05 1022.37 1022.69 1022.97 1023.33 1023.77 1024.05 1024.33 1024.89 1025.13 1025.53 1025.89 1026.09 1026.41 1026.49 1026.69 1027.05 1027.37 1027.49 1027.53 1027.69 1027.77 1027.73 1027.85 1027.89 1027.97 1028.13 1028.37 1028.57 1028.69 1028.85 1029.09 1029.21 1029.25 1029.25 1029.29 1029.37 1029.45 1029.53
1020.69 1021.01 1021.41 1021.81 1022.21 1022.49 1022.85 1023.29 1023.69 1024.17 1024.69 1024.97 1025.05 1025.45 1025.69 1025.97 1026.17 1026.45 1026.81 1027.01 1027.29 1027.49 1027.53 1027.81 1027.93 1027.85 1027.85 1027.89 1027.93 1028.13 1028.45 1028.65 1028.77 1028.93 1029.05 1029.13 1029.13 1029.17 1029.29 1029.41 1029.45 1029.49
1020.45 1020.77 1021.21 1021.69 1022.05 1022.17 1022.53 1023.17 1023.77 1024.25 1024.53 1024.73 1024.57 1025.05 1025.53 1026.01 1026.29 1026.65 1026.97 1027.13 1027.17 1027.37 1027.53 1027.69 1027.93 1027.93 1027.85 1027.81 1027.89 1028.09 1028.33 1028.57 1028.77 1028.89 1028.97 1028.97 1029.01 1029.09 1029.29 1029.41 1029.45 1029.49
1020.37 1020.77 1021.17 1021.49 1021.73 1022.01 1022.45 1022.97 1023.53 1023.93 1024.49 1024.77 1024.93 1025.17 1025.65 1026.17 1026.37 1026.53 1026.97 1027.25 1027.33 1027.45 1027.61 1027.81 1027.97 1028.01 1027.85 1027.81 1027.85 1027.97 1028.25 1028.49 1028.69 1028.81 1028.73 1028.77 1028.93 1029.25 1029.29 1029.37 1029.49 1029.53
1020.29 1020.65 1021.01 1021.29 1021.49 1022.05 1022.65 1023.09 1023.73 1024.25 1024.53 1024.73 1025.17 1025.45 1025.77 1026.13 1026.33 1026.53 1026.77 1027.21 1027.45 1027.65 1027.81 1027.93 1028.05 1028.05 1027.93 1027.81 1027.85 1027.89 1028.09 1028.45 1028.61 1028.57 1028.53 1028.81 1029.01 1029.21 1029.37 1029.45 1029.45 1029.53
Wind_Speed
9 9 9 8 8 8 10 8 6 10 8 6 6 5 6 6 5 6 5 4 4 5 4 5 5 6 6 6 6 6 6 6 5 5 6 5 5 5 5 5 6 4
10 9 8 8 6 6 7 10 10 8 7 6 6 7 5 7 4 5 5 6 5 5 4 5 5 5 5 5 5 7 6 6 6 4 5 7 4 5 6 6 6 4
9 9 9 10 9 9 8 5 7 7 7 6 6 7 7 5 6 4 5 6 6 5 5 5 6 5 6 6 6 6 6 6 6 4 7 6 5 7 5 4 5 6
8 10 10 9 9 10 8 8 7 7 7 7 6 7 8 6 6 6 6 5 7 6 5 5 5 5 6 6 7 7 6 6 4 4 6 4 4 5 5 4 3 4
10 8 7 8 7 9 9 9 9 8 7 8 8 7 7 7 7 6 6 6 6 6 5 5 5 5 5 6 6 7 5 5 3 4 6 6 4 5 3 4 5 5
6 7 8 9 9 10 9 9 9 9 9 9 8 7 6 7 7 7 7 7 5 6 6 5 6 4 5 6 6 6 5 5 4 5 7 6 4 4 4 5 5 6
9 8 8 8 8 7 9 9 8 8 8 8 7 6 7 7 8 8 7 7 6 5 6 6 6 5 4 5 6 6 5 5 4 6 6 4 4 5 5 5 5 4
9 7 8 8 9 8 9 8 8 8 8 8 8 6 7 8 8 7 6 6 7 6 5 6 5 6 4 5 7 7 6 4 5 5 5 4 4 5 4 4 3 4
8 9 8 9 10 9 9 9 8 7 7 10 8 7 5 7 8 7 6 6 7 6 6 6 5 6 4 6 6 6 6 5 4 5 6 5 5 4 4 3 4 4
8 8 9 8 10 8 10 8 8 8 7 8 8 7 8 6 6 7 6 6 7 6 6 6 6 5 5 5 6 6 5 5 5 5 5 5 4 4 4 4 4 4
8 7 9 9 9 8 9 8 8 8 7 8 9 8 7 8 5 5 6 6 8 7 6 6 5 5 6 6 5 5 5 5 4 4 4 4 4 4 4 4 4 4
7 7 8 9 9 9 9 9 8 8 8 6 8 10 7 6 7 5 6 7 6 6 6 6 5 5 6 6 5 4 4 4 4 4 4 4 4 3 3 3 3 3
8 7 8 8 8 8 8 7 7 7 8 8 7 9 9 8 6 7 4 7 6 6 6 6 6 6 6 5 4 4 4 4 5 4 4 4 3 3 3 3 3 3
7 7 8 8 7 7 7 7 7 7 7 7 7 8 8 8 8 8 6 6 6 6 5 5 6 6 5 4 4 4 5 5 4 4 4 3 3 3 3 3 3 2
7 6 6 7 8 8 8 8 7 7 7 7 7 6 6 7 7 8 9 8 6 6 6 5 6 5 4 4 5 4 4 4 3 3 3 4 3 3 3 3 3 3
7 7 7 8 9 9 8 8 8 8 8 8 7 7 7 7 7 6 7 9 8 6 6 6 5 4 6 9 7 4 4 3 3 4 3 3 3 3 3 3 3 3
7 7 8 9 8 8 8 9 9 8 8 8 7 7 8 7 8 8 7 7 7 7 7 5 4 4 9 10 10 9 4 3 4 4 3 3 3 3 3 3 3 3
8 8 9 8 8 9 9 8 8 8 8 8 8 8 7 6 8 7 7 7 7 7 6 5 4 7 10 9 9 10 7 4 4 4 4 4 3 3 2 2 3 3
9 10 9 9 9 9 8 8 8 8 8 8 8 7 7 8 7 8 7 6 7 8 6 4 4 9 10 10 10 10 10 6 4 3 5 4 3 2 2 2 3 4
9 9 10 9 8 8 8 9 8 9 7 6 7 6 8 8 6 8 7 7 7 7 7 5 4 8 10 9 10 10 10 6 3 4 4 4 3 2 2 2 3 3
9 9 9 9 9 9 8 8 8 7 7 7 7 8 9 9 9 8 7 6 7 6 7 6 4 9 9 9 9 10 10 7 4 4 3 3 2 2 2 2 2 3
10 10 9 9 10 9 9 9 8 8 9 7 6 6 5 6 5 6 8 7 6 6 7 6 4 9 9 9 9 10 10 5 4 4 3 3 2 2 2 2 2 3
10 11 11 10 10 10 10 9 9 8 6 6 8 7 8 7 7 6 6 7 7 5 7 6 4 6 8 8 9 11 7 4 3 3 3 2 3 3 2 2 2 3
10 10 11 10 10 11 11 8 6 5 6 6 9 9 8 7 7 7 5 5 6 6 6 7 5 5 8 8 9 10 8 4 3 3 3 3 4 4 3 3 3 6
9 9 9 11 11 10 10 11 9 9 6 5 6 6 8 7 7 8 7 4 4 5 7 7 5 4 7 8 9 9 7 4 3 2 4 4 3 3 4 3 2 4
8 10 9 10 11 9 8 8 7 8 7 7 6 6 8 7 6 7 8 6 5 5 5 4 5 3 3 8 8 8 8 4 2 3 5 4 3 3 3 2 2 2
Wind_Direction
179 177 177 177 176 172 163 161 172 160 163 159 150 146 140 129 122 103 105 101 96 97 93 92 93 92 89 87 89 87 79 83 74 65 68 72 65 63 59 48 49 50
182 176 173 167 157 160 164 164 161 158 152 148 138 131 115 115 107 117 119 107 93 91 93 89 86 93 96 95 94 93 85 83 77 55 76 66 63 65 62 50 52 44
171 166 162 164 163 157 147 130 130 132 135 133 136 124 119 117 122 107 108 109 103 95 88 92 95 97 100 100 97 93 91 87 85 70 77 75 66 65 55 49 46 42
170 167 165 163 156 146 139 133 125 120 124 131 130 123 121 131 121 115 105 103 105 100 100 100 107 103 102 104 101 88 90 85 107 112 93 79 62 72 54 52 52 47
161 154 147 140 137 137 139 138 140 141 136 127 116 119 125 128 122 116 113 107 112 115 115 111 105 106 107 98 98 98 90 94 91 93 79 70 49 59 49 52 39 35
137 142 142 141 144 144 139 138 144 138 131 125 132 129 128 127 128 128 127 125 127 127 118 112 105 99 102 104 92 90 97 82 66 75 70 65 56 58 53 47 39 31
139 134 131 130 130 132 127 130 131 128 124 128 121 132 135 135 132 132 132 132 132 124 119 117 109 102 95 101 93 92 78 87 76 74 79 63 62 45 41 43 40 34
133 129 133 133 129 126 123 126 128 126 130 128 132 142 145 137 129 129 130 132 121 117 110 105 101 98 101 98 98 93 80 70 75 78 76 67 58 47 35 40 43 32
130 133 132 131 126 127 126 128 127 128 136 133 137 141 132 126 130 130 132 125 116 115 111 102 98 96 88 91 90 93 92 77 76 76 72 64 55 46 35 23 35 29
130 133 131 132 128 132 130 133 133 135 135 132 137 135 123 111 120 131 129 127 119 113 106 107 101 98 89 84 91 96 92 88 80 77 77 76 70 50 34 32 26 17
135 139 134 132 130 133 135 137 138 135 138 140 134 121 121 122 121 130 126 123 119 119 114 107 113 112 102 92 83 84 93 93 88 83 76 70 63 52 41 36 22 19
138 137 137 138 138 139 142 142 138 139 138 131 129 125 123 128 132 132 126 118 114 115 113 114 113 107 100 99 99 100 98 96 92 83 78 71 63 54 45 40 32 6
149 148 141 140 142 139 135 134 136 140 136 131 129 129 133 133 130 118 116 116 117 114 114 116 109 99 98 102 107 103 101 91 79 75 72 71 71 62 53 44 34 17
152 145 140 139 135 132 134 135 136 134 126 123 127 131 135 136 134 125 120 110 112 107 110 107 100 94 96 101 99 95 88 80 80 79 77 75 71 59 50 36 20 10
144 139 133 133 134 135 138 142 138 129 125 126 127 127 125 126 127 126 122 111 103 107 104 93 91 95 104 103 96 88 91 93 94 88 79 70 62 56 45 36 15 5
144 141 141 139 141 146 148 143 136 133 131 130 131 129 127 128 122 118 118 122 118 108 97 93 94 95 102 105 106 111 102 103 96 82 76 71 62 47 30 24 7 0
144 146 144 149 150 145 145 141 137 136 134 132 133 133 132 130 124 120 118 118 118 117 108 102 97 95 96 96 99 106 108 103 96 87 82 74 64 48 22 358 351 345
152 149 152 153 151 152 148 142 137 136 139 140 137 132 131 125 118 120 120 120 113 108 107 107 101 102 102 101 103 105 104 98 93 91 79 73 62 45 19 355 340 342
156 159 157 157 159 151 145 140 142 142 144 146 144 140 131 124 128 123 122 119 118 118 113 111 104 107 106 106 107 102 92 91 89 85 78 66 51 38 11 352 347 344
162 162 161 158 149 144 145 147 151 156 149 138 133 133 127 125 124 122 123 122 124 122 119 117 107 110 110 109 109 101 93 91 89 79 73 68 65 33 13 355 345 347
165 164 157 152 150 150 151 155 154 144 144 148 147 144 143 141 140 131 127 125 125 124 119 114 109 111 111 111 111 103 93 93 83 83 76 75 55 54 14 348 332 335
166 161 157 156 156 155 156 156 155 158 152 149 129 116 110 114 106 115 129 130 130 129 119 111 109 113 113 113 110 104 99 94 96 88 88 89 58 68 30 351 335 327
169 165 164 163 160 157 160 160 157 150 146 146 132 135 134 132 134 128 132 132 134 134 123 116 110 113 115 113 111 109 101 99 100 97 97 101 67 49 38 6 343 328
174 169 164 162 163 166 163 157 147 138 150 162 147 146 139 138 131 121 122 131 134 134 135 125 120 115 117 113 111 110 106 102 99 111 93 79 64 39 45 10 337 324
167 163 165 166 168 166 160 156 159 156 148 137 132 127 130 132 130 124 123 119 121 122 125 120 118 108 111 112 108 107 105 103 101 123 95 66 47 30 4 1 333 300
165 166 168 170 167 154 151 149 137 135 147 138 129 131 134 134 130 130 127 125 121 114 114 119 120 107 103 110 103 96 101 108 128 91 69 55 28 12 357 342 310 282